Regional Weather Roundup
Issued by NWS

Home | Current Version | Previous Version | Text Only | Print | Product List | Glossary On
Versions: 1 2 3 4 5 6 7 8 9 10 11 12 13 14 15 16 17 18 19 20 21 22 23 24 25 26 27
000
ASUS45 KBOI 270610
RWRID

IDAHO REGIONAL WEATHER ROUNDUP
NATIONAL WEATHER SERVICE BOISE ID
1200 AM MDT MON MAR 27 2017

NOTE: "FAIR" INDICATES FEW OR NO CLOUDS BELOW 12000 FEET
WITH NO SIGNIFICANT WEATHER AND/OR OBSTRUCTIONS TO VISIBILITY

IDZ012-014-270700-
SOUTHWEST IDAHO


CITY           SKY/WX    TMP DP  RH WIND       PRES   REMARKS
BOISE          LGT RAIN  48  35  60 VRB7      29.86S
CALDWELL       LGT RAIN  46  40  79 S8        29.89R
MOUNTAIN HOME  MOCLDY    44  44 100 E8        29.87F
$$

IDZ016-017-270700-
SOUTHCENTRAL IDAHO


CITY           SKY/WX    TMP DP  RH WIND       PRES   REMARKS
BURLEY         CLOUDY    43  37  79 E6        29.89F
JEROME         CLOUDY    42  38  85 E10       29.90F
TWIN FALLS     CLOUDY    42  37  82 CALM      29.91S
$$

IDZ019>023-270700-
SOUTHEAST IDAHO


CITY           SKY/WX    TMP DP  RH WIND       PRES   REMARKS
IDAHO FALLS    LGT RAIN  42  38  85 S9        29.93F
POCATELLO      CLOUDY    41  38  89 NW5       29.93S
REXBURG        LGT RAIN  39  36  89 S9        29.92F WCI  33
$$

IDZ006-010-011-018-031-032-270700-
CENTRAL IDAHO MOUNTAINS


CITY           SKY/WX    TMP DP  RH WIND       PRES   REMARKS
MCCALL         CLOUDY    34  31  88 CALM      29.83F
HAILEY         DRIZZLE   36  34  93 CALM      29.93S
STANLEY          N/A     34  25  69 SE7       29.88F WCI  28
SALMON         CLOUDY    43  30  61 CALM      29.83S
CHALLIS        CLOUDY    44  25  47 SW13      29.85S
$$

IDZ002-004-006-007-026-270700-
NORTHERN IDAHO


CITY           SKY/WX    TMP DP  RH WIND       PRES   REMARKS
LEWISTON       CLOUDY    45  42  89 SE6       29.83S
LOWELL           N/A     42  39  89 NW3       29.87F
COEUR D`ALENE  LGT RAIN  41  40  96 S8        29.83S
MULLAN PASS    SNOW      30  30 100 S5        29.77F VSB 1/4 WCI  25
$$




USA.gov is the U.S. government's official web portal to all federal, state and local government web resources and services.